Погода в Рагузе

Италия     36°55′13″N   14°43′19″E
темп.,
°C
ветер,
м/с
пор.,
м/с
влажн.,
%
обл.,
%
осадки,
мм/ч
давл.,
гПа
погр.,
м
2 марта, вт
вт201:00+7всв119454 0.0 102823
04:00+7всв119344 0.0 102823
07:00+7всв229151 0.0 102941
10:00+12в226820 0.0 1030841
13:00+12в336953 0.1 1030868
16:00+12в457380 0.1 1029784
19:00+6всв229250 0.1 103022
22:00+6св35910 0.0 1031105
3 марта, ср
ср301:00+6всв48910 0.0 1031188
04:00+6св510910 0.0 1030241
07:00+6всв612920 0.0 1030344
10:00+11всв797510 0.0 1031857
13:00+14в666311 0.1 10311182
16:00+12в447245 0.1 1029800
19:00+6в229730 0.1 102936
22:00+5всв229413 0.0 102924
4 марта, чт
чт401:00+5всв22888 0.0 102822
04:00+4всв12790 0.0 102722
07:00+5всв11790 0.0 102622
10:00+11ююв225778 0.0 1026827
13:00+14ююз325686 0.0 10241281
16:00+11ююз437295 0.0 1022653
19:00+7юв118883 0.0 102224
22:00+5вюв119045 0.0 102222
5 марта, пт
пт501:00+5в119062 0.0 102022
04:00+6вюв1192100 0.0 101922
07:00+8в2493100 0.3 1018168
10:00+11юв3583100 0.1 1018598
13:00+13вюв4474100 0.2 1017754
16:00+11ю2284100 0.5 1016391
19:00+8ююв1197100 0.9 101722
22:00+8св339150 0.0 101935
6 марта, сб
сб601:00+7всв118925 0.0 101922
04:00+6ссв12880 0.0 101922
07:00+7с12860 0.0 102022
10:00+14ссз11610 0.0 1021771
13:00+17зюз32554 0.0 10211347
16:00+14зюз337031 0.4 1021635
19:00+8всв019215 0.6 102222
22:00+8всв12928 0.0 102422